STARLINK-1172, 45074

Orbit data source: Space-Track

STARLINK-1172, 45074 is a payload satellite owned by SpaceX/Seattle (US) in LEO that was launched on Wed, 29 Jan 2020 UTC via an FALCON 9 launch vehicle from the Air Force Eastern Test Range (AFETR). Payloads include a variety of satellites, spacecraft, and rockets equipped with specific instruments for various scientific and technological missions. These include communications satellites like Starlink; space stations such as the ISS; scientific satellites like the Hubble; Earth observation satellites from companies like Planet Labs, Umbra, and HawkEye 360; GPS; miniature CubeSats for education and research; and military/defense satellites.

Loading next visibility...
STARLINK-1172 details
Identifier
45074, 2020-006AG
Orbit
LEO
Last TLE update22 hours ago
Origin
Flag of USSpaceX/Seattle (US)
ManufacturerSpaceX/Seattle
MissionOperational Commercial Communications
Bus & MotorSTARLINK, Unknown motor
Mass260 kg wet, ~248 kg dry
Launch date (UTC)
2020-01-29 (5 years ago)
Launch vehicle
FALCON 9
Launch site
Air Force Eastern Test Range (AFETR)
Object type
Payload
Rocket body
Debris
Shape & HBRBox + 1 Pan, 8.86 m
Radar Cross Section13.562 m², Large (>1 m²)

Expand to show TLE details & history

TLE from 22 hours ago
0 STARLINK-1172
1 45074U 20006AG  24360.52160526  .00024584  00000-0  16649-2 0  9991
2 45074  53.0539  78.1194 0001382  82.2647 277.8499 15.06369314270890
Epoch: 2024-12-25T12:31Z
Definitive object data (Epoch: 2024-12-25T12:31:06.694Z)
Latitude-0.00001°
Longitude155.82735°
Altitude548.054 km
Speed7.589 km/s
True Right ascension05h 12m 28s
True Declination0° 00' 00"
Sunlit
Object was in full shadow at TLE epoch
Visualization TLE readout
Latitude-23.56336°
Longitude132.64234°
Altitude554.311 km
Speed7.584 km/s
Apparent Right ascension01h 17m 40s
Apparent Declination-39° 07' 20"
Sunlit
Object is in full shadow
Visualization observer readout
Local Sidereal Time10:01:58
Azimuth254.984° W
Elevation-52.732°
Doppler factor1
Orbital elements
Apogee altitude548.534 km
Perigee altitude546.619 km
Semi-major axis6,925.713 km
Eccentricity0.0001382
Inclination53.0539°
RAAN78.1194°
Arg. of periapsis82.2647°
True anomaly277.83421°
Mean anomaly277.8499°
Eccentric anomaly277.84206°
Mean motion3.76571 °/min
BSTAR0.0016649
Orbital period95.6 mins
Loading maneuver chart data...
Loading historical data...
Loading historical data...
Loading historical data...
Loading historical data...
Loading historical data...
Loading historical data...
Loading historical data...

STARLINK-1172 Visibility forecast

Observer location: undefined°, undefined

Span
Click to sort rows by Start time (UTC) header in descending order
Start Az.
Max El. time (UTC)
Max El. Az.
Max El.
End time (UTC)
End Az.
4 mins2024-12-26 12:50:44.556Z351.315° N2024-12-26 12:51:44.556Z8.528° NNE16.452°2024-12-26 12:54:44.556Z57.439° ENE
6 mins2024-12-26 14:29:44.556Z321.292° NNW2024-12-26 14:32:44.556Z61.736° ENE39.833°2024-12-26 14:35:44.556Z114.754° SE
4 mins2024-12-26 16:09:44.556Z265.108° W2024-12-26 16:11:44.556Z228.967° WSW18.082°2024-12-26 16:13:44.556Z195.023° SSW
6 mins2024-12-27 07:41:44.556Z223.766° SW2024-12-27 07:44:44.556Z93.336° ESE44.165°2024-12-27 07:47:44.556Z52.865° ENE
4 mins2024-12-27 09:22:44.556Z302.99° NW2024-12-27 09:24:44.556Z343.946° N20.738°2024-12-27 09:26:44.556Z19.8° NNE
|